Regional Weather Roundup
Issued by NWS

Home | Current Version | Previous Version | Text Only | Print | Product List | Glossary On
Versions: 1 2 3 4 5 6 7 8 9 10 11 12 13 14 15 16 17 18 19 20 21 22 23 24 25 26 27 28 29 30 31 32 33 34 35 36 37 38 39 40 41 42 43 44 45 46 47 48 49 50
000
ASUS43 KDTX 221801
RWRMI
MICHIGAN HOURLY REGIONAL WEATHER ROUNDUP
NATIONAL WEATHER SERVICE DETROIT/PONTIAC MI
200 PM EDT MON SEP 22 2014

NOTE: "FAIR" INDICATES FEW OR NO CLOUDS BELOW 12,000 FEET WITH NO
SIGNIFICANT WEATHER AND/OR OBSTRUCTION TO VISIBILITY.

MIZ047>049-052>055-059>063-066>070-074>076-081>083-221900-
SOUTHEAST LOWER MICHIGAN

CITY           SKY/WX    TMP DP  RH WIND       PRES   REMARKS
ADRIAN         SUNNY     59  41  51 NW12      30.23S
6HR MIN TEMP:  46; 6HR MAX TEMP:  59;

ALMA           MOSUNNY   60  42  51 W5        30.22S
ANN ARBOR      SUNNY     59  41  51 W10       30.21S
BAD AXE        SUNNY     54  42  63 NW8G18    30.18F
6HR MIN TEMP:  47; 6HR MAX TEMP:  54;

CARO           SUNNY     58  43  58 W9G16     30.19F
DETROIT CITY   SUNNY     59  38  45 NW9       30.20F
6HR MIN TEMP:  51; 6HR MAX TEMP:  60;

DETROIT        MOSUNNY   59  42  53 NW12      30.21S
6HR MIN TEMP:  48; 6HR MAX TEMP:  59;

FLINT          MOSUNNY   59  42  53 N13G20    30.21F
6HR MIN TEMP:  48; 6HR MAX TEMP:  59;

GROSSE ILE     MOSUNNY   59  43  55 W6        30.20F
HILLSDALE      SUNNY     60  40  47 NW6       30.23S
HOWELL         SUNNY     56  40  55 W10       30.21F
6HR MIN TEMP:  44; 6HR MAX TEMP:  57;


CITY           SKY/WX    TMP DP  RH WIND       PRES   REMARKS
JACKSON        SUNNY     59  42  53 VRB5      30.23S
6HR MIN TEMP:  43; 6HR MAX TEMP:  60;

LAMBERTVILLE   SUNNY     59  41  51 CALM      30.22F
LANSING        SUNNY     59  41  51 NW9       30.23F
6HR MIN TEMP:  43; 6HR MAX TEMP:  59;

LAPEER         MOCLDY    55  41  59 NW10      30.20S
MASON          SUNNY     57  42  55 NW9G16    30.23S
MONROE         MOSUNNY   61  43  51 NW9       30.21S
MT. CLEMENS    MOSUNNY   58  41  52 NW12      30.17F
6HR MIN TEMP:  48; 6HR MAX TEMP:  58;

PONTIAC        MOSUNNY   56  39  53 NW9       30.19F
6HR MIN TEMP:  45; 6HR MAX TEMP:  57;

PORT HOPE        N/A     53  40  61 VRB5      30.17S
6HR MIN TEMP:  49; 6HR MAX TEMP:  54;

PORT HURON     PTSUNNY   55  43  62 W10       30.19S
TRI CITIES     SUNNY     60  43  53 NW9       30.21F
6HR MIN TEMP:  45; 6HR MAX TEMP:  60;

TROY           MOSUNNY   59  38  45 W6G16     30.22S
SAGINAW HB     SUNNY     59  41  51 W5        30.19F
$$
MIZ043>046-050>051-056>058-064>065-071>073-077>080-221900-
SOUTHWEST LOWER MICHIGAN

CITY           SKY/WX    TMP DP  RH WIND       PRES   REMARKS
BATTLE CREEK   SUNNY     60  42  51 NW9       30.25S
6HR MIN TEMP:  41; 6HR MAX TEMP:  60;

BENTON HARBOR  SUNNY     58  45  62 VRB7      30.28S
6HR MIN TEMP:  41; 6HR MAX TEMP:  58;

BIG RAPIDS     MOSUNNY   59  48  65 NW7       30.21F
6HR MIN TEMP:  41; 6HR MAX TEMP:  60;

COLDWATER      SUNNY     61  41  47 NW6       30.24F
6HR MIN TEMP:  45; 6HR MAX TEMP:  61;

FREMONT        FAIR      61  42  49 NW8       30.23S
HOLLAND        SUNNY     60  46  59 W9        30.27S
6HR MIN TEMP:  42; 6HR MAX TEMP:  61;

GRAND RAPIDS   MOSUNNY   60  44  55 W9        30.24F
6HR MIN TEMP:  44; 6HR MAX TEMP:  61;

IONIA          FAIR      59  43  55 NW9       30.23F
KALAMAZOO      SUNNY     61  42  49 N10       30.25F
6HR MIN TEMP:  42; 6HR MAX TEMP:  61;

LUDINGTON      SUNNY     57  48  72 SW10      30.24S
6HR MIN TEMP:  42; 6HR MAX TEMP:  57;

MARSHALL       SUNNY     59  40  49 N6        30.23F
MOUNT PLEASANT MOSUNNY   60  42  52 NW7       30.21S
6HR MIN TEMP:  43; 6HR MAX TEMP:  60;

MUSKEGON       MOSUNNY   60  46  59 W10       30.26S
6HR MIN TEMP:  42; 6HR MAX TEMP:  60;

SOUTH HAVEN    SUNNY     59  46  63 NW8       30.27S
$$
MIZ016>042-221900-
NORTHERN LOWER MICHIGAN

CITY           SKY/WX    TMP DP  RH WIND       PRES   REMARKS
ALPENA         SUNNY     59  41  51 VRB6      30.13F
6HR MIN TEMP:  44; 6HR MAX TEMP:  59;

BEAVER ISLAND  SUNNY     59  50  71 SW14G21   30.14F
6HR MIN TEMP:  45; 6HR MAX TEMP:  59;

BELLAIRE       CLOUDY    57  46  66 SW7       30.18F
6HR MIN TEMP:  42; 6HR MAX TEMP:  57;

CADILLAC       PTSUNNY   61  47  60 SW12      30.18F
CHARLEVOIX     MOSUNNY   57  49  72 W18       30.18F
6HR MIN TEMP:  47; 6HR MAX TEMP:  57;

FRANKFORT      CLOUDY    58  46  66 SW9       30.21S
GAYLORD        CLOUDY    57  43  59 W13G18    30.16S
6HR MIN TEMP:  37; 6HR MAX TEMP:  57;

GRAYLING       PTSUNNY   59  44  57 W8        30.17S
6HR MIN TEMP:  40; 6HR MAX TEMP:  60;

HARBOR SPRINGS CLOUDY    57  48  70 SW9       30.15F
HOUGHTON LAKE  MOSUNNY   58  44  60 W7        30.18F
6HR MIN TEMP:  43; 6HR MAX TEMP:  58;

MANISTEE       CLOUDY    55  43  62 W12G17    30.23S
OSCODA         SUNNY     59  39  48 NW8       30.15F
PELLSTON       PTSUNNY   58  47  66 W14G21    30.14F
6HR MIN TEMP:  41; 6HR MAX TEMP:  58;

ROGERS CITY    SUNNY     57  46  67 W12G17    30.13F
TRAVERSE CITY  CLOUDY    59  45  59 SW8       30.18F
6HR MIN TEMP:  43; 6HR MAX TEMP:  59;

$$
MIZ007>008-015-221900-
EASTERN UPPER MICHIGAN

CITY           SKY/WX    TMP DP  RH WIND       PRES   REMARKS
KINROSS        PTSUNNY   57  45  62 W10       30.10S
6HR MIN TEMP:  39; 6HR MAX TEMP:  57;

MACKINAC ISLAN CLOUDY    56  47  72 W12G22    30.12F
6HR MIN TEMP:  43; 6HR MAX TEMP:  56;

NEWBERRY       SUNNY     60  46  60 W12G25    30.10F
S. S. MARIE    CLOUDY    56  42  59 NW7       30.09S
6HR MIN TEMP:  41; 6HR MAX TEMP:  56;

$$
MIZ004>006-011>014-085-221900-
CENTRAL UPPER MICHIGAN

CITY           SKY/WX    TMP DP  RH WIND       PRES   REMARKS
MANISTIQUE     SUNNY     61  51  68 SW7       30.12S
ESCANABA       PTSUNNY   63  45  51 W13G20    30.14S
6HR MIN TEMP:  34; 6HR MAX TEMP:  64;

MENOMINEE      MOSUNNY   63  48  59 W7        30.17F
6HR MIN TEMP:  37; 6HR MAX TEMP:  63;

SAWYER-GWINN   MOSUNNY   63  46  55 W13G20    30.12F
$$
MIZ001>003-009>011-084-221900-
WESTERN UPPER MICHIGAN

CITY           SKY/WX    TMP DP  RH WIND       PRES   REMARKS
IRON MOUNTAIN  MOSUNNY   65  46  50 W15G21    30.15S
6HR MIN TEMP:  35; 6HR MAX TEMP:  66;

HOUGHTON       SUNNY     61  47  59 W17       30.10F
6HR MIN TEMP:  49; 6HR MAX TEMP:  62;

COPPER HARBOR    N/A     64  48  56 NW9G23    30.07F
6HR MIN TEMP:  53; 6HR MAX TEMP:  65;

IRONWOOD       PTSUNNY   63  50  63 W13       30.15F
6HR MIN TEMP:  39; 6HR MAX TEMP:  63;

$$

ABBREVIATIONS USED IN REMARKS
   TC - TEMPERATURE IN CELSIUS
  WCI - WIND CHILL INDEX
   HX - HEAT INDEX
  VSB - VISIBILITY




USA.gov is the U.S. government's official web portal to all federal, state and local government web resources and services.